Content
SEND FEEDBACK

Daily
Averages
Monthly
Summary
Greece

MITILINI, GREECE


Home > Europe > Greece
Elevation: 16 feet     Latitude: 39 04N     Longitude: 026 36E

WEATHER
 
SELECT A DAY
Number of Records: 93,070;   Date Range: 7/9/96 - 10/20/14
 
SHARE

PRINT THIS DATA

[ ← Previous Day ]
WEATHER ALMANAC - FEBRUARY 4, 2013
[ Next Day → ]
[ °C ]   °F
Weather ElementAverageHighLow
Temperature61.5 °F64.4 °F (3:50 pm)59 °F (10:50 pm)
Dewpoint48.8 °F51.8 °F (1:50 pm)46.4 °F (8:20 am)
Humidity62.1 %77 % (10:50 pm)49 % (8:00 pm)
Barometer30.02 in30.06 in (9:20 am)29.98 in (3:50 pm)
Wind Speed16.3 mph20.7 mph (1:50 am)
Wind Gust33.4 mph (1:50 am)
Weather ElementAverage
Visibility6.2 mi
Wind DirectionSSE (162.5 °)

Weather ElementTotal
Precipitation---
Heating Degree Days3.3 (Base 65)
Growing Degree Days11.7 (Base 50)
Averaged from 44 records on February 4, 2013
WEATHER CONDITIONS BREAKOUT
WIND DIRECTION BREAKOUT
WEATHER BY HOUR - FEBRUARY 4, 2013
[ °C ]   °F
Local TimeTemperatureDewpointHumidityBarometerVisibilityWind DirectionWind SpeedGust SpeedPrecipitationEventsConditions
1:50 AM60.8 °F48.2 °F63 %30.01 in6.2 miSSE (150°)20.7 mph33.4 mphScattered Clouds
2:00 AM61.0 °F48.0 °F52 %30.02 in6.0 miSSE (150°)20.7 mphPartly Cloudy
2:50 AM60.8 °F48.2 °F63 %30.01 in6.2 miSSE (150°)18.4 mph31.1 mphScattered Clouds
3:50 AM60.8 °F48.2 °F63 %30.01 in6.2 miSSE (150°)18.4 mph31.1 mphScattered Clouds
4:20 AM60.8 °F48.2 °F63 %30.01 in6.2 miSSE (150°)19.6 mph32.2 mphScattered Clouds
4:50 AM60.8 °F48.2 °F63 %30.01 in6.2 miSSE (150°)18.4 mph31.1 mphScattered Clouds
5:20 AM60.8 °F48.2 °F63 %30.01 in6.2 miSSE (150°)16.1 mph28.8 mphScattered Clouds
5:50 AM60.8 °F48.2 °F63 %30.01 in6.2 miSE (140°)13.8 mphScattered Clouds
6:20 AM60.8 °F48.2 °F63 %30.04 in6.2 miSSE (150°)12.7 mph24.2 mphMostly Cloudy
6:50 AM60.8 °F50.0 °F68 %30.04 in6.2 miSSE (150°)15.0 mphMostly Cloudy
7:20 AM60.8 °F48.2 °F63 %30.04 in6.2 miSSE (150°)15.0 mphMostly Cloudy
7:50 AM60.8 °F48.2 °F63 %30.04 in6.2 miSSE (150°)15.0 mphMostly Cloudy
8:00 AM60.0 °F48.0 °F55 %30.05 in6.0 miSSE (150°)15.0 mphScattered Clouds
8:20 AM60.8 °F46.4 °F59 %30.04 in6.2 miSSE (150°)12.7 mphMostly Cloudy
8:50 AM60.8 °F46.4 °F59 %30.04 in6.2 miSSE (150°)16.1 mphMostly Cloudy
9:20 AM60.8 °F48.2 °F63 %30.06 in6.2 miSSE (150°)16.1 mph27.6 mphMostly Cloudy
9:50 AM62.6 °F48.2 °F59 %30.06 in6.2 miSSE (150°)17.3 mphMostly Cloudy
10:20 AM62.6 °F48.2 °F59 %30.06 in6.2 miSSE (150°)19.6 mphMostly Cloudy
10:50 AM62.6 °F48.2 °F59 %30.06 in6.2 miSSE (150°)18.4 mphMostly Cloudy
11:20 AM62.6 °F48.2 °F59 %30.06 in6.2 miSSE (150°)18.4 mphMostly Cloudy
12:50 PM62.6 °F50.0 °F63 %30.04 in6.2 miSSE (150°)16.1 mphMostly Cloudy
1:20 PM62.6 °F50.0 °F63 %30.04 in6.2 miSSE (150°)16.1 mphMostly Cloudy
1:50 PM62.6 °F51.8 °F68 %30.04 in6.2 miSSE (150°)15.0 mphMostly Cloudy
2:00 PM63.0 °F51.0 °F55 %30.05 in6.0 miSSE (150°)15.0 mphPartly Cloudy
2:20 PM62.6 °F48.2 °F59 %30.04 in6.2 miSSE (160°)19.6 mphMostly Cloudy
2:50 PM62.6 °F48.2 °F59 %30.01 in6.2 miSouth (170°)18.4 mphMostly Cloudy
3:20 PM62.6 °F48.2 °F59 %30.01 in6.2 miSouth (170°)19.6 mph31.1 mphMostly Cloudy
3:50 PM64.4 °F50.0 °F59 %29.98 in6.2 miSouth (170°)20.7 mph32.2 mphMostly Cloudy
4:20 PM62.6 °F50.0 °F63 %29.98 in6.2 miSouth (180°)20.7 mphMostly Cloudy
4:50 PM62.6 °F48.2 °F59 %29.98 in6.2 miSouth (180°)18.4 mphMostly Cloudy
5:20 PM62.6 °F51.8 °F68 %29.98 in6.2 miSouth (180°)18.4 mphMostly Cloudy
5:50 PM62.6 °F50.0 °F63 %29.98 in6.2 miSouth (180°)17.3 mphMostly Cloudy
6:20 PM62.6 °F48.2 °F59 %29.98 in6.2 miSouth (180°)20.7 mphMostly Cloudy
6:50 PM60.8 °F48.2 °F63 %29.98 in6.2 miSSW (200°)19.6 mph33.4 mphScattered Clouds
7:20 PM60.8 °F48.2 °F63 %29.98 in6.2 miSSW (200°)19.6 mphScattered Clouds
7:50 PM60.8 °F48.2 °F63 %30.01 in6.2 miSSW (200°)17.3 mphScattered Clouds
8:00 PM62.0 °F48.0 °F49 %30.01 in6.0 miSSW (200°)17.3 mphScattered Clouds
8:20 PM60.8 °F48.2 °F63 %30.01 in6.2 miSSW (200°)18.4 mph29.9 mphScattered Clouds
8:50 PM60.8 °F48.2 °F63 %30.01 in6.2 miSSW (210°)20.7 mphPartly Cloudy
9:20 PM60.8 °F48.2 °F63 %30.01 in6.2 miSSW (200°)13.8 mphPartly Cloudy
9:50 PM60.8 °F50.0 °F68 %30.04 in6.2 miSSW (210°)8.1 mphPartly Cloudy
10:20 PM60.8 °F50.0 °F68 %30.04 in6.2 miSouth (180°)4.6 mphPartly Cloudy
10:50 PM59.0 °F51.8 °F77 %30.04 in6.2 miSouth (190°)4.6 mphPartly Cloudy
11:50 PM59.0 °F50.0 °F72 %30.04 in6.2 miCalmPartly Cloudy
Hourly data recorded from LGMT, located miles away from Mitilini, Greece







STORIES FROM OUR PARTNERS